Location: Jackson Park
(37.2862°N, 79.9123°W)
Time: 05:21:13
(UTC+00:00)

Vanguard 3 - All Passes

Search period start: 10 May 2026 00:00
Search period end: 20 May 2026 00:00
Orbit: 507 x 3204 km, 33.3° (Epoch: 8 May)

Date Brightness Start Highest point End Pass type
(mag) Time Alt. Az. Time Alt. Az. Time Alt. Az.
10 May - 00:51:31 10° W 01:05:48 59° SSW 01:13:53 10° SE visible
10 May - 03:09:15 10° W 03:16:19 21° SW 03:21:17 10° S visible
10 May - 16:46:34 10° S 16:58:55 22° SE 17:11:35 10° E daylight
10 May - 18:54:44 10° SW 19:12:51 50° SSE 19:28:39 10° E daylight
10 May - 21:08:40 10° WSW 21:28:06 73° S 21:41:36 10° E daylight
10 May - 23:25:31 10° W 23:42:45 73° S 23:52:52 10° ESE daylight
11 May - 01:42:56 10° W 01:55:00 41° SSW 02:02:12 10° SE visible
11 May - 17:32:48 10° SSW 17:48:32 36° SE 18:04:16 10° E daylight
11 May - 19:44:06 10° SW 20:03:19 63° SSE 20:18:55 10° E daylight
11 May - 21:59:37 10° W 22:18:45 77° S 22:31:12 10° E daylight
12 May - 00:16:53 10° W 00:32:40 61° SSW 00:41:49 10° SE daylight
12 May - 02:34:55 10° W 02:43:36 24° SW 02:49:30 10° S visible
12 May - 16:13:06 10° S 16:24:54 22° SE 16:37:41 10° E daylight
12 May - 18:20:53 10° SW 18:38:33 51° SSE 18:55:22 10° E daylight
12 May - 20:34:20 10° WSW 20:54:01 74° S 21:08:52 10° E daylight
12 May - 22:50:52 10° W 23:09:14 74° S 23:20:36 10° ESE daylight
13 May - 01:08:23 10° W 01:22:01 44° SSW 01:30:12 10° SE visible
13 May - 03:31:25 10° SW 03:31:44 10° SW 03:32:03 10° SW visible
13 May - 16:59:17 10° SSW 17:14:19 36° SE 17:30:33 10° E daylight
13 May - 19:10:08 10° SW 19:29:00 64° SSE 19:45:48 10° E daylight
13 May - 21:25:09 10° W 21:44:50 78° S 21:58:38 10° E daylight
13 May - 23:42:13 10° W 23:59:19 62° SSW 00:09:38 10° SE daylight
14 May - 02:00:25 10° W 02:10:43 26° SW 02:17:37 10° S visible
14 May - 15:39:54 10° S 15:50:56 22° SE 16:03:29 10° E daylight
14 May - 17:47:17 10° SW 18:04:12 51° SSE 18:21:50 10° E daylight
14 May - 20:00:13 10° WSW 20:19:46 74° S 20:35:56 10° E daylight
14 May - 22:16:17 10° W 22:35:29 74° S 22:48:09 10° ESE daylight
15 May - 00:33:43 10° W 00:48:50 46° SSW 00:58:07 10° SE visible
15 May - 02:54:57 10° WSW 02:58:55 12° SW 03:02:17 10° SSW visible
15 May - 16:26:02 10° SSW 16:40:09 36° SE 16:56:34 10° E daylight
15 May - 18:36:24 10° SW 18:54:36 65° SSE 19:12:28 10° E daylight
15 May - 20:50:52 10° W 21:10:42 78° S 21:25:51 10° E daylight
15 May - 23:07:34 10° W 23:25:45 64° SSW 23:37:18 10° SE daylight
16 May - 01:25:46 10° W 01:37:39 29° SW 01:45:36 10° SSE visible
16 May - 15:06:59 10° S 15:17:04 21° SE 15:29:02 10° E daylight
16 May - 17:13:57 10° SW 17:29:53 51° SSE 17:48:02 10° E daylight
16 May - 19:26:19 10° WSW 19:45:24 75° S 20:02:46 10° E daylight
16 May - 21:41:51 10° W 22:01:30 75° S 22:15:32 10° ESE daylight
16 May - 23:59:02 10° W 00:15:24 48° SSW 00:25:52 10° SE daylight
17 May - 02:19:51 10° W 02:25:56 14° SW 02:30:51 10° SSW visible
17 May - 15:53:00 10° SSW 16:06:04 35° SE 16:22:21 10° E daylight
17 May - 18:02:55 10° SW 18:20:11 65° SSE 18:38:51 10° E daylight
17 May - 20:16:48 10° W 20:36:25 78° S 20:52:53 10° E daylight
17 May - 22:33:01 10° W 22:51:56 65° SSW 23:04:48 10° SE daylight
18 May - 00:51:03 10° W 01:04:23 31° SW 01:13:27 10° SSE visible
18 May - 14:34:19 10° S 14:43:19 20° SE 14:54:23 10° E daylight
18 May - 16:40:50 10° SW 16:55:37 51° SSE 17:13:59 10° E daylight
18 May - 18:52:41 10° WSW 19:10:58 75° S 19:29:22 10° E daylight
18 May - 21:07:36 10° W 21:27:20 75° S 21:42:43 10° ESE daylight
18 May - 23:24:23 10° W 23:41:46 49° SSW 23:53:27 10° SE daylight
19 May - 01:44:53 10° W 01:52:47 16° SW 01:59:02 10° SSW visible
19 May - 15:20:12 10° SSW 15:32:07 34° SE 15:47:54 10° E daylight
19 May - 17:29:42 10° SW 17:45:48 65° SSE 18:04:58 10° E daylight
19 May - 19:42:58 10° W 20:02:01 79° S 20:19:40 10° E daylight
19 May - 21:58:36 10° W 22:17:55 65° SSW 22:32:07 10° SE daylight
